Location: Tel Aviv
(32.0670°N, 34.7670°E)
Time: 02:39:41
(UTC+03:00)

Vanguard 2 - Pass Details

Date: 24 January 2022
Orbit: 552 x 2935 km, 32.9° (Epoch: 26 May)

Event Time Altitude Azimuth Distance (km) Brightness Sun altitude
Rises 03:04:25 0° 285° (WNW) 6,381 - -45.4°
Reaches altitude 10° 03:08:47 10° 279° (W) 5,555 - -44.4°
Maximum altitude 03:24:17 41° 218° (SW) 3,778 - -41.2°
Exits shadow 03:26:13 40° 205° (SSW) 3,787 10.7 -40.8°
Drops below altitude 10° 03:38:50 10° 155° (SSE) 5,191 11.9 -38.1°
Sets 03:42:48 0° 147° (SSE) 5,938 12.4 -37.2°
